Location: Dal�� Lhota
(48.7500°N, 14.0167°E)
Time: 23:08:20
(UTC+00:00)

Spot 2 Rocket - Pass Details

Date: 24 September 2020
Orbit: 758 x 771 km, 98.6° (Epoch: 25 October)

Event Time Altitude Azimuth Distance (km) Brightness Sun altitude
Exits shadow 19:25:14 37° 48° (NE) 1,173 4.2 -24.3°
Drops below altitude 10° 19:29:15 10° 359° (N) 2,300 6.3 -24.9°
Sets 19:31:40 0° 352° (N) 3,231 7.3 -25.2°
